Location: �terpigny
(49.8910°N, 2.9249°E)
Time: 03:52:26
(UTC+00:00)

QB50P2 - Visible Passes

Search period start: 29 June 2022 00:00
Search period end: 09 July 2022 00:00
Orbit: 589 x 606 km, 97.9° (Epoch: 28 June)

Date Brightness Start Highest point End Pass type
(mag) Time Alt. Az. Time Alt. Az. Time Alt. Az.
29 Jun ? 01:21:09 10° NNE 01:25:24 83° ESE 01:28:06 22° S visible
29 Jun ? 23:57:46 10° ENE 23:59:40 13° E 00:01:34 10° ESE visible
30 Jun ? 01:31:38 10° NNE 01:35:52 78° WNW 01:38:40 21° SSW visible
01 Jul ? 00:07:38 10° NE 00:10:15 16° E 00:12:32 11° SE visible
01 Jul ? 01:42:08 10° N 01:46:20 62° WNW 01:49:14 19° SSW visible
02 Jul ? 00:17:41 10° NE 00:20:50 20° E 00:23:06 14° SE visible
02 Jul ? 01:52:40 10° N 01:56:46 49° WNW 01:59:48 17° SW visible
03 Jul ? 00:27:53 10° NE 00:31:24 25° E 00:33:39 16° SE visible
03 Jul ? 02:03:13 10° N 02:07:11 39° WNW 02:10:22 15° SW visible
04 Jul ? 00:38:08 10° NNE 00:41:56 31° E 00:44:13 19° SE visible
04 Jul ? 02:13:48 10° N 02:17:35 32° WNW 02:20:55 12° SW visible
05 Jul ? 00:48:27 10° NNE 00:52:26 38° E 00:54:46 21° SSE visible
05 Jul ? 02:24:26 10° N 02:27:58 26° WNW 02:31:28 10° WSW visible
06 Jul ? 00:58:49 10° NNE 01:02:57 49° E 01:05:18 23° SSE visible
06 Jul ? 02:35:06 10° NNW 02:38:19 21° WNW 02:41:33 10° WSW visible
07 Jul ? 01:09:12 10° NNE 01:13:26 62° E 01:15:51 24° S visible
07 Jul ? 02:45:49 10° NNW 02:48:40 18° WNW 02:51:31 10° WSW visible
08 Jul ? 01:19:37 10° NNE 01:23:54 79° ESE 01:26:23 25° S visible
08 Jul ? 02:56:39 10° NNW 02:59:00 15° WNW 03:01:21 10° W visible
08 Jul ? 23:56:23 10° ENE 23:58:06 12° E 23:59:49 10° ESE visible
